Flag for Netherlands Weather past 2 weeks in Amersfoort, Netherlands

Now
37 °F

Passing clouds.


Feels Like: 35 °F
Forecast: 40 / 48 °F
Wind: 3 mph from West

Location: Deelen

Current Time: Mar 5, 2015 at 8:09:20 PM

Latest Report: Mar 5, 2015 at 7:25 PM


Visibility: N/A

Pressure: 30.60 "Hg

Humidity: 81%

Dew point: 32 °F

Location of AmersfoortLocation

Historic Weather in Amersfoort — Graph

°F

Amersfoort temperature yesterday

Maximum temperature yesterday: 45 °F (at 3:25 PM)
Minimum temperature yesterday: 34 °F (at 12:55 AM)
Average temperature yesterday: 38 °F

Past Weeks' High & Low Weather Summary

 TemperatureHumidityPressure
High52 °F (Mar 1, 1:25 PM)100% (Feb 18, 7:55 PM)30.63 "Hg (Feb 18, 7:55 PM)
Low28 °F (Feb 27, 10:25 PM)53% (Feb 27, 4:25 PM)29.30 "Hg (Feb 23, 4:25 AM)
Average39 °F86%29.86 "Hg
* Reported Feb 18 6:25 PM — Mar 5 6:55 PM, Amersfoort, Weather by CustomWeather, © 2015

Note: Actual official high and low records may vary slightly from our data, if they occured in-between our weather recording intervals... More about our weather records

Advertising

Amersfoort weather history for previous 24 hours

 ConditionsComfort  
Time TempWeatherWind HumidityBarometerVisibility
6:55 PM
Thu, Mar 5
39 °FPassing clouds.3 mph75%30.60 "HgN/A
6:25 PM41 °FPassing clouds.5 mph70%30.60 "HgN/A
5:55 PM45 °FPassing clouds.7 mph61%30.60 "HgN/A
5:25 PM46 °FBroken clouds.7 mph57%30.60 "HgN/A
4:55 PM46 °FPassing clouds.10 mph57%30.60 "HgN/A
4:25 PM48 °FBroken clouds.10 mph54%30.60 "HgN/A
3:55 PM48 °FMore clouds than sun.8 mph62%30.60 "HgN/A
3:25 PM48 °FBroken clouds.7 mph66%30.60 "HgN/A
2:55 PM48 °FBroken clouds.10 mph66%30.60 "HgN/A
2:25 PM46 °FMore clouds than sun.10 mph71%30.60 "HgN/A
1:55 PM48 °FBroken clouds.9 mph66%30.60 "HgN/A
1:25 PM46 °FOvercast.8 mph71%30.60 "HgN/A
12:55 PM46 °FOvercast.7 mph66%30.63 "HgN/A
12:25 PM45 °FOvercast.7 mph76%30.63 "HgN/A
11:55 AM45 °FOvercast.7 mph81%30.63 "HgN/A
11:25 AM45 °FOvercast.7 mph76%30.63 "HgN/A
10:55 AM43 °FOvercast.6 mph87%30.63 "HgN/A
10:25 AM41 °FPassing clouds.6 mph93%30.63 "HgN/A
9:55 AM39 °FFog.1 mph100%30.63 "Hg5 mi
9:25 AM36 °FFog.2 mph100%30.63 "Hg2 mi
8:55 AM34 °FFog.1 mph100%30.63 "Hg2 mi
8:25 AM32 °FIce fog.1 mph100%30.60 "Hg1 mi
7:55 AM30 °FIce fog.No wind100%30.63 "Hg0 mi
7:25 AM30 °FIce fog.No wind100%30.60 "Hg0 mi
6:55 AM30 °FIce fog.No wind100%30.60 "Hg1 mi
6:25 AM32 °FIce fog.No wind100%30.60 "Hg1 mi
5:55 AM32 °FIce fog.No wind93%30.60 "Hg1 mi
5:25 AM30 °FIce fog.1 mph100%30.60 "Hg1 mi
4:55 AM30 °FIce fog.No wind100%30.57 "Hg1 mi
3:55 AM32 °FIce fog.1 mph100%30.57 "Hg2 mi
2:55 AM34 °FFog.1 mph93%30.54 "Hg3 mi
2:25 AM32 °FIce fog.1 mph100%30.54 "Hg3 mi
1:55 AM34 °FFog.3 mph100%30.54 "Hg4 mi
1:25 AM34 °FPassing clouds.3 mph93%30.54 "HgN/A
12:55 AM36 °FPassing clouds.5 mph93%30.51 "HgN/A
12:25 AM36 °FPassing clouds.6 mph93%30.48 "HgN/A
11:55 PM
Wed, Mar 4
37 °FPassing clouds.8 mph87%30.48 "HgN/A
11:25 PM39 °FPassing clouds.10 mph87%30.48 "HgN/A
10:25 PM41 °FPassing clouds.12 mph87%30.45 "HgN/A
9:55 PM39 °FPassing clouds.10 mph93%30.42 "HgN/A
9:25 PM41 °FPassing clouds.10 mph87%30.39 "HgN/A
8:55 PM41 °FMostly cloudy.12 mph87%30.39 "HgN/A
8:25 PM41 °FPartly cloudy.10 mph87%30.36 "HgN/A
Weather by CustomWeather, © 2015

See weather overviewHow to use our weather pages